| time (UTC) | temp C | wind direction | speed KPH | gust KPH | rain 1hr cm | rain 24hr cm | rain mn cm | humidity % | barometer mb |
| 20260901231610 | 18 | 184 | 0.0 | 0.0 | 0.00 | 0.10 | 0.00 | 80 | |
| 20260901224547 | 18 | 206 | 0.0 | 1.6 | 0.00 | 0.10 | 0.00 | 79 | |
| 20260901224510 | 18 | 206 | 0.0 | 1.6 | 0.00 | 0.10 | 0.00 | 79 | |
| 20260901204111 | 20 | 191 | 0.0 | 1.6 | 0.00 | 0.10 | 0.00 | 77 | |
| 20260901193911 | 20 | 194 | 1.6 | 3.2 | 0.00 | 0.10 | 0.10 | 78 | |
| 20260901173511 | 20 | 198 | 0.0 | 0.0 | 0.00 | 0.10 | 0.10 | 77 | |
| 20260901170411 | 20 | 26 | 1.6 | 4.8 | 0.00 | 0.10 | 0.10 | 79 | |
| 20260901163311 | 21 | 16 | 4.8 | 6.4 | 0.00 | 0.10 | 0.10 | 77 | |
| 20260901160211 | 21 | 22 | 3.2 | 3.2 | 0.00 | 0.10 | 0.10 | 79 | |
| 20260901150011 | 19 | 355 | 0.0 | 0.0 | 0.00 | 0.10 | 0.10 | 87 | |
| 20260901135811 | 18 | 15 | 0.0 | 0.0 | 0.10 | 0.10 | 0.10 | 87 | |
| 20260901125611 | 18 | 15 | 0.0 | 0.0 | 0.00 | 0.00 | 0.00 | 85 | |
| 20260901115412 | 18 | 175 | 0.0 | 0.0 | 0.00 | 0.00 | 0.00 | 85 | |
| 20260901112312 | 18 | 175 | 0.0 | 0.0 | 0.00 | 0.00 | 0.00 | 85 | |
| 20260901105212 | 18 | 175 | 0.0 | 0.0 | 0.00 | 0.00 | 0.00 | 85 | |
| 20260901102112 | 18 | 175 | 0.0 | 0.0 | 0.00 | 0.00 | 0.00 | 84 | |
| 20260901095013 | 18 | 192 | 0.0 | 0.0 | 0.00 | 0.00 | 0.00 | 84 | |
| 20260901091914 | 18 | 171 | 0.0 | 0.0 | 0.00 | 0.00 | 0.00 | 84 | |
| 20260901074612 | 18 | 156 | 0.0 | 0.0 | 0.00 | 0.00 | 0.00 | 83 | |
| 20260901071512 | 18 | 178 | 0.0 | 0.0 | 0.00 | 0.00 | 0.00 | 82 | |
| 20260901061312 | 18 | 135 | 0.0 | 3.2 | 0.00 | 0.00 | 0.00 | 83 | |
| 20260901033815 | 18 | 212 | 1.6 | 8.0 | 0.00 | 0.00 | 0.00 | 80 | |
| 20260901023614 | 18 | 196 | 1.6 | 8.0 | 0.00 | 0.03 | 0.00 | 80 | |
| 20260901013413 | 18 | 233 | 1.6 | 8.0 | 0.00 | 0.05 | 0.00 | 80 | |
| 20260901010313 | 18 | 136 | 0.0 | 8.0 | 0.00 | 0.05 | 0.00 | 78 |